CST,Max TemperatureF,Mean TemperatureF,Min TemperatureF,Max Dew PointF,MeanDew PointF,Min DewpointF,Max Humidity, Mean Humidity, Min Humidity, Max Sea Level PressureIn, Mean Sea Level PressureIn, Min Sea Level PressureIn, Max VisibilityMiles, Mean VisibilityMiles, Min VisibilityMiles, Max Wind SpeedMPH, Mean Wind SpeedMPH, Max Gust SpeedMPH,PrecipitationIn, CloudCover, Events, WindDirDegrees
2014-2-1,25,16,6,19,12,2,84,72,59,30.37,30.11,29.94,10,7,2,25,10,31,0.03,6,Snow,357
2014-2-2,27,14,0,10,4,-3,95,71,46,30.46,30.37,30.31,10,10,1,17,6,20,0.00,1,,184
2014-2-3,31,19,7,15,9,2,80,65,50,30.33,30.29,30.25,10,10,10,15,10,17,0.00,5,,147
2014-2-4,24,14,4,19,11,-1,92,76,60,30.48,30.32,30.25,10,3,0,29,14,35,0.13,8,Fog-Snow,20
2014-2-5,10,4,-3,-1,-4,-10,87,71,55,30.73,30.62,30.42,10,6,2,30,19,36,0.01,5,Snow,337
2014-2-6,10,1,-9,-3,-8,-14,75,63,50,30.72,30.61,30.48,10,10,10,15,7,18,0.00,2,Fog,286
2014-2-7,16,7,-2,5,-1,-7,76,61,46,30.45,30.34,30.22,10,10,7,20,10,23,T,5,Snow,174
2014-2-8,29,21,12,19,13,6,84,71,57,30.27,30.14,30.03,10,6,2,15,9,19,0.04,8,Snow,282
2014-2-9,19,9,-1,12,2,-5,83,73,63,30.53,30.40,30.28,10,9,6,18,10,22,T,6,,350
2014-2-10,13,2,-9,-2,-5,-11,91,70,48,30.61,30.56,30.50,10,10,2,13,6,15,0.00,3,,28
2014-2-11,18,10,2,8,2,-5,79,66,53,30.54,30.36,30.15,10,10,10,23,14,28,0.00,7,,163
2014-2-12,28,23,17,20,16,7,84,70,56,30.15,30.07,29.86,10,7,0,24,10,29,0.02,8,Snow,243
2014-2-13,51,37,22,30,23,15,92,65,38,29.86,29.77,29.72,10,9,6,26,11,32,0.00,3,,86
2014-2-14,29,23,17,19,14,8,84,65,46,30.15,29.92,29.66,10,8,2,24,12,29,0.06,6,Snow,13
2014-2-15,55,37,18,31,21,9,75,54,32,30.11,29.96,29.80,10,9,1,32,14,44,T,6,Snow,181
2014-2-16,33,28,22,25,22,17,84,77,69,30.22,30.08,29.91,10,9,4,24,14,30,0.00,8,,111
2014-2-17,54,42,29,32,25,19,92,59,26,29.94,29.87,29.81,10,7,0,32,12,39,0.08,5,Rain-Snow,242
2014-2-18,64,48,31,29,25,22,72,46,19,29.94,29.75,29.62,10,10,10,36,13,43,0.00,2,,252
2014-2-19,50,38,25,32,27,22,92,62,32,29.98,29.83,29.60,10,10,10,23,9,26,0.00,5,,162
2014-2-20,43,35,26,35,29,15,92,78,63,29.78,29.58,29.48,10,6,0,33,20,44,0.30,8,Fog-Rain-Snow,326
2014-2-21,48,35,22,30,21,13,85,63,40,29.91,29.84,29.78,10,10,10,25,6,31,T,1,,270
2014-2-22,39,33,26,26,20,15,92,66,40,30.25,30.07,29.91,10,10,10,18,9,23,0.00,6,,6
2014-2-23,32,26,20,16,10,5,74,57,39,30.43,30.37,30.27,10,10,10,17,9,20,0.00,7,,348
2014-2-24,25,23,20,18,15,9,84,67,50,30.43,30.35,30.26,10,7,2,13,6,15,0.03,8,Snow,90
2014-2-25,21,14,6,15,3,-3,84,69,53,30.57,30.48,30.39,10,9,6,24,15,30,0.01,7,Snow,342
2014-2-26,36,18,0,14,5,-5,79,59,38,30.56,30.20,29.95,10,10,10,25,12,32,0.00,0,,275
2014-2-27,21,13,4,5,-5,-15,73,51,28,30.27,30.14,29.96,10,10,10,17,10,23,0.00,2,,58
2014-2-28,41,27,13,23,12,0,84,59,34,30.19,29.96,29.85,10,8,1,26,15,33,0.01,7,Snow,4